Content
SEND FEEDBACK

Daily
Averages
Monthly
Summary
United States of America

RIMROCK, ARIZONA


Home > North America > United States > Arizona
Elevation: 3830 feet     Latitude: 34 40N     Longitude: 111 43W

WEATHER
 
SELECT A DAY
Number of Records: 130,842;   Date Range: 1/4/95 - 9/18/14
 
SHARE

PRINT THIS DATA

[ ← Previous Day ]
WEATHER ALMANAC - JULY 20, 2014
[ Next Day → ]
[ °C ]   °F
Weather ElementAverageHighLow
Temperature81 °F95 °F (1:35 pm)69.8 °F (3:35 am)
Dewpoint38.9 °F44.6 °F (8:35 am)33.8 °F (4:15 pm)
Humidity23.8 %38 % (3:35 am)13 % (1:35 pm)
Barometer30.17 in30.23 in (8:35 am)30.12 in (4:35 pm)
Wind Speed6.3 mph12.7 mph (4:55 pm)
Wind Gust21.9 mph (7:15 pm)
Weather ElementAverage
Visibility10 mi
Wind DirectionSE (139 °)

Weather ElementTotal
Precipitation---
Cooling Degree Days17.4 (Base 65)
Growing Degree Days32.4 (Base 50)
Averaged from 70 records on July 20, 2014
WEATHER CONDITIONS BREAKOUT
WIND DIRECTION BREAKOUT
WEATHER BY HOUR - JULY 20, 2014
[ °C ]   °F
Local TimeTemperatureDewpointHumidityBarometerVisibilityWind DirectionWind SpeedGust SpeedPrecipitationEventsConditions
12:35 AM77.0 °F42.8 °F29 %30.16 in10.0 miSE (130°)3.5 mphClear
12:55 AM77.0 °F42.8 °F29 %30.16 in10.0 miCalmClear
1:15 AM73.4 °F42.8 °F33 %30.16 in10.0 miNNE (20°)5.8 mphClear
1:35 AM73.4 °F42.8 °F33 %30.16 in10.0 miNNE (30°)4.6 mphClear
1:55 AM71.6 °F42.8 °F35 %30.15 in10.0 miNNE (30°)10.4 mphClear
2:15 AM71.6 °F42.8 °F35 %30.15 in10.0 miNNE (30°)8.1 mphClear
2:35 AM71.6 °F42.8 °F35 %30.14 in10.0 miNNE (30°)5.8 mphClear
2:55 AM71.6 °F42.8 °F35 %30.14 in10.0 miNNE (30°)8.1 mphClear
3:15 AM71.6 °F42.8 °F35 %30.15 in10.0 miNE (40°)5.8 mphClear
3:35 AM69.8 °F42.8 °F38 %30.15 in10.0 miNNE (30°)5.8 mphClear
3:55 AM69.8 °F42.8 °F38 %30.16 in10.0 miNNE (30°)8.1 mphClear
4:15 AM69.8 °F42.8 °F38 %30.16 in10.0 miNNE (30°)9.2 mphClear
4:35 AM71.6 °F42.8 °F35 %30.17 in10.0 miNNE (30°)5.8 mphClear
4:55 AM71.6 °F42.8 °F35 %30.17 in10.0 miENE (70°)3.5 mphClear
5:15 AM71.6 °F42.8 °F35 %30.18 in10.0 miNE (40°)4.6 mphClear
5:35 AM69.8 °F42.8 °F38 %30.18 in10.0 miCalmClear
5:55 AM71.6 °F42.8 °F35 %30.18 in10.0 miCalmClear
6:15 AM69.8 °F42.8 °F38 %30.19 in10.0 miNE (40°)3.5 mphClear
6:35 AM71.6 °F42.8 °F35 %30.20 in10.0 miNNE (30°)4.6 mphClear
6:55 AM71.6 °F42.8 °F35 %30.21 in10.0 miNE (40°)4.6 mphClear
7:15 AM71.6 °F42.8 °F35 %30.21 in10.0 miNE (40°)4.6 mphClear
7:35 AM73.4 °F42.8 °F33 %30.21 in10.0 miNE (50°)3.5 mphClear
7:55 AM73.4 °F42.8 °F33 %30.21 in10.0 miNE (50°)3.5 mphClear
8:15 AM77.0 °F42.8 °F29 %30.21 in10.0 miCalmClear
8:35 AM77.0 °F44.6 °F32 %30.23 in10.0 miCalmClear
8:55 AM78.8 °F44.6 °F30 %30.23 in10.0 miCalmClear
9:15 AM80.6 °F42.8 °F26 %30.22 in10.0 miSSE (150°)4.6 mphClear
9:35 AM82.4 °F42.8 °F25 %30.22 in10.0 miSE (140°)3.5 mphClear
10:15 AM86.0 °F42.8 °F22 %30.22 in10.0 miWest (270°)4.6 mphClear
10:35 AM86.0 °F37.4 °F18 %30.21 in10.0 miWest (280°)4.6 mph16.1 mphClear
10:55 AM86.0 °F39.2 °F19 %30.21 in10.0 miWNW (300°)4.6 mphClear
11:15 AM87.8 °F37.4 °F17 %30.22 in10.0 miWest (260°)5.8 mphClear
11:35 AM87.8 °F39.2 °F18 %30.22 in10.0 miWSW (250°)6.9 mphClear
11:55 AM89.6 °F37.4 °F16 %30.21 in10.0 miSW (230°)9.2 mph17.3 mphClear
12:15 PM89.6 °F37.4 °F16 %30.20 in10.0 miWSW (240°)8.1 mph19.6 mphClear
12:35 PM89.6 °F37.4 °F16 %30.20 in10.0 miSE (140°)3.5 mphClear
12:55 PM91.4 °F37.4 °F15 %30.19 in10.0 miSSW (200°)9.2 mphClear
1:15 PM91.4 °F37.4 °F15 %30.19 in10.0 miWest (260°)9.2 mph18.4 mphClear
1:35 PM95.0 °F37.4 °F13 %30.18 in10.0 miSW (230°)10.4 mph17.3 mphClear
1:55 PM89.6 °F37.4 °F16 %30.18 in10.0 miSW (220°)6.9 mphClear
2:15 PM89.6 °F35.6 °F15 %30.17 in10.0 miSSW (200°)11.5 mphClear
2:35 PM91.4 °F35.6 °F14 %30.17 in10.0 miWSW (240°)11.5 mph19.6 mphClear
2:55 PM89.6 °F35.6 °F15 %30.16 in10.0 miWest (270°)4.6 mph19.6 mphClear
3:15 PM89.6 °F35.6 °F15 %30.16 in10.0 miWSW (250°)9.2 mph16.1 mphClear
3:35 PM91.4 °F35.6 °F14 %30.14 in10.0 miSE (130°)4.6 mphClear
3:55 PM91.4 °F35.6 °F14 %30.14 in10.0 miSouth (190°)9.2 mphClear
4:15 PM91.4 °F33.8 °F13 %30.13 in10.0 miSouth (180°)9.2 mph18.4 mphClear
4:35 PM91.4 °F33.8 °F13 %30.12 in10.0 miSSE (160°)4.6 mph16.1 mphClear
4:55 PM91.4 °F33.8 °F13 %30.12 in10.0 miSSW (200°)12.7 mph19.6 mphClear
5:15 PM89.6 °F33.8 °F14 %30.12 in10.0 miSSW (200°)12.7 mph17.3 mphClear
5:35 PM89.6 °F33.8 °F14 %30.12 in10.0 miWSW (240°)10.4 mph16.1 mphClear
5:55 PM89.6 °F33.8 °F14 %30.12 in10.0 miSW (220°)9.2 mph17.3 mphClear
6:15 PM87.8 °F33.8 °F15 %30.12 in10.0 miSSW (210°)12.7 mph17.3 mphClear
6:35 PM87.8 °F35.6 °F16 %30.12 in10.0 miSSW (200°)8.1 mphClear
6:55 PM86.0 °F35.6 °F17 %30.12 in10.0 miSSW (200°)11.5 mphClear
7:15 PM86.0 °F35.6 °F17 %30.13 in10.0 miSouth (190°)12.7 mph21.9 mphClear
7:35 PM84.2 °F35.6 °F18 %30.13 in10.0 miSouth (190°)12.7 mph19.6 mphClear
7:55 PM82.4 °F35.6 °F19 %30.14 in10.0 miSouth (190°)11.5 mph16.1 mphClear
8:15 PM82.4 °F35.6 °F19 %30.15 in10.0 miSSW (200°)8.1 mphClear
8:35 PM80.6 °F37.4 °F21 %30.16 in10.0 miSouth (180°)5.8 mphClear
8:55 PM80.6 °F37.4 °F21 %30.16 in10.0 miSouth (190°)6.9 mphClear
9:15 PM80.6 °F37.4 °F21 %30.17 in10.0 miSSW (200°)5.8 mphClear
9:35 PM78.8 °F37.4 °F23 %30.17 in10.0 miSSW (200°)3.5 mphClear
9:55 PM78.8 °F35.6 °F21 %30.18 in10.0 miSouth (170°)4.6 mphClear
10:15 PM78.8 °F35.6 °F21 %30.18 in10.0 miSouth (180°)4.6 mphClear
10:35 PM78.8 °F35.6 °F21 %30.18 in10.0 miSSW (200°)4.6 mphClear
10:55 PM77.0 °F35.6 °F22 %30.19 in10.0 miSouth (180°)6.9 mphClear
11:15 PM77.0 °F35.6 °F22 %30.19 in10.0 miSouth (190°)3.5 mphClear
11:35 PM77.0 °F35.6 °F22 %30.19 in10.0 miSouth (190°)3.5 mphClear
11:55 PM77.0 °F35.6 °F22 %30.19 in10.0 miCalmClear
Hourly data recorded from KSEZ, located miles away from Rimrock, Arizona







STORIES FROM OUR PARTNERS